Weather in Vortsa

Russia / Udmurt Republic     58°06′12″N   52°09′04″E
temp.,
°C
wind,
m/s
gust,
m/s
humid.,
%
clouds,
%
prec.,
mm/h
press.,
hPa
HPBL,
m
7 may, fri
fri701:00+8s51281100 0.0 1014249
04:00+8s4129293 0.0 1014247
07:00+11s51280100 0.0 1013321
10:00+16ssw6105873 0.0 1013772
13:00+19ssw8114179 0.0 10132624
16:00+18ssw71146100 0.0 10132462
19:00+15ssw61156100 0.0 1013902
22:00+12s4136786 0.0 1013420
8 may, sat
sat801:00+11ssw51273100 0.0 1014508
04:00+8nw5889100 0.3 1016385
07:00+8nw3588100 0.3 1018389
10:00+11ne3367100 0.3 1018693
13:00+12ese2165100 0.0 1018793
16:00+14se226125 0.0 1017962
19:00+14ese34700 0.0 1016232
22:00+10ese34854 0.0 101655
9 may, sun
sun901:00+9se488928 0.0 1015142
04:00+8sse38895 0.0 1016123
07:00+12sse4117499 0.0 1016333
10:00+17sse685199 0.0 1015960
13:00+20sse6840100 0.0 10152112
16:00+21s683738 0.0 10152544
19:00+18sse3756100 0.0 1015164
22:00+16sse41156100 0.0 1016269
10 may, mon
mon1001:00+15sse41260100 0.0 1017286
04:00+14s2864100 0.0 1018201
07:00+14s2370100 0.0 1020109
10:00+18sw3552100 0.0 1021906
13:00+19wsw3651100 0.0 10211290
16:00+15nw6883100 0.1 1023653
19:00+11n478999 0.4 1025531
22:00+10n5786100 0.4 1026762
11 may, tue
tue1101:00+9n4783100 0.0 1028717
04:00+7n48915 0.0 1029312
07:00+8nne4968100 0.0 1030457
10:00+12nne464677 0.0 1031967
13:00+15n443661 0.0 10301361
16:00+17nnw45385 0.0 10291551
19:00+15nnw2355100 0.0 102956
22:00+12nw2265100 0.0 103011